Voltar ao catálogo

STARLINK-35729

AtivoComunicaçõesVLEO
NORAD 66837·PAYLOAD·🇺🇸 United States

Lançado Dec 2, 2025 de Vandenberg Space Force Base

Loading…

Próximas Passagens (próximas 24 horas)

TLE

AtualizadoSource: CelesTrak SupGP

Época: Sep 14, 2026, 21:34 UTC

1 66837C 25280S   26257.89909722  .00008730  00000+0  73176-3 0  2576
2 66837  70.0011 217.5796 0003193 265.5221  68.1113 14.98319679    15

Acompanhe STARLINK-35729 em tempo real com AllMySat

Download on the App Store